sat.trackr.live / text

‹ back to catalog

TRANSPORTER-15 OBJECT CY

NORAD 66760 · 2025-276CY

PAYLOAD ACTIVE UNKNOWN

§ Identity

Operator
Country
TBD
Launch date
2025-11-28
Launch site
AFWTR
Launch vehicle
Mass (kg)
RCS (m²)

External: N2YO · Heavens-Above · Gunter

§ Orbital elements

Epoch: 2026-05-25T03:36:54.324000Z

Period
94.74 min
Inclination
97.4193°
Eccentricity
0.0001739
Mean motion
15.20028857 rev/d
Perigee alt
504.6 km
Apogee alt
507.0 km
Semi-major
6,883.9 km
B*
2.1427e-4
RAAN
219.2255°
Arg perigee
76.0191°
Mean anomaly
284.1238°
Rev number
2,693

§ Raw data

TRANSPORTER-15 OBJECT CY1 66760U 25276CY  26145.15062875  .00004551  00000+0  21427-3 0  99922 66760  97.4193 219.2255 0001739  76.0191 284.1238 15.20028857 26936

JSON: /api/v1/satellites/66760 · /tle

For live sub-satellite position, see the globe view (requires WebGL).

§ Visibility from observer

Set your observer location to see the next 7 days of passes ≥ 10°. The values pass through the URL so the page stays shareable.

No JS? Fill the form by hand. The geolocation button needs JavaScript.